If you wish to contribute or participate in the discussions about articles you are invited to join SKYbrary as a registered user

 Actions

Anvik Airport

From SKYbrary Wiki

PANV
Airport
ICAO: PANV – IATA: ANV
Summary
Name Anvik Airport
Region North America
Territory Alaska US.gif
Location , Alaska
Serving Anvik
Elevation 88.697 m
291 ft
291 ft88.697 m
Type medium airport
Coordinates 62° 38' 48.12" N, 160° 11' 27.60" W
Runways
Designator Length Width Surface ROPS
17/35 902 m2,959.318 ft
23 m75.459 ft
GVL /


METAR
Observation PANV 190856Z AUTO 30004KT 10SM OVC046 M05/M11 A2963 RMK AO2 SLP057 T10501106 410171078 51006 FZRANO
Station Anvik, Anvik Airport
Date/Time 19 April 2019 08:56:00
Wind direction 300°
Wind speed 04 kts
Lowest cloud amount overcast
Temperature
Dew point
Humidity 64%
QNH hPa
Weather condition n/a